Temperature
15 14 14 13 13 13 13 13 13 13 13 13 13 13 12 12 11 10 10 9 9 9 9 9 9 9 9 9 8 9 9 9 9 9 10 10 10 10 10 10 10 10 10
14 14 13 13 13 13 13 12 13 13 13 13 13 12 12 11 10 10 9 9 9 8 8 8 8 8 8 8 8 8 8 9 9 9 9 9 9 9 10 10 10 10 10
14 14 13 13 13 12 12 12 13 13 13 13 13 12 11 10 10 9 9 8 8 8 8 8 8 8 8 8 7 7 7 8 8 8 8 8 8 8 8 8 8 8 9
13 13 13 13 12 12 12 12 13 13 13 13 12 12 11 10 9 8 8 8 8 8 8 8 8 8 7 7 7 7 6 6 6 6 6 7 7 7 7 7 6 6 7
13 13 13 12 12 12 12 12 13 13 13 13 12 11 10 9 9 8 8 7 7 7 7 7 7 7 7 7 7 7 6 5 5 5 5 5 5 5 5 5 5 5 5
13 13 12 12 12 12 12 12 12 12 13 12 12 11 9 9 8 8 7 7 7 7 7 6 6 6 6 6 6 6 6 4 4 3 3 3 3 3 4 4 4 4 4
13 12 12 12 12 12 12 12 12 12 12 12 11 10 9 8 8 7 7 7 6 6 6 6 5 5 5 5 5 5 5 4 3 3 2 2 2 2 2 2 2 3 3
13 13 12 12 12 12 12 12 12 12 12 12 11 10 9 8 7 7 7 7 6 6 5 5 5 5 5 5 5 4 4 4 3 2 1 1 1 1 1 1 1 2 2
13 13 13 12 12 12 12 12 12 11 12 11 11 11 10 9 8 7 7 6 6 6 5 5 4 4 4 4 4 3 3 3 2 1 0 0 0 -0 -0 0 0 1 1
13 13 13 12 12 12 11 11 11 11 11 11 11 10 10 10 9 8 7 6 6 5 5 4 4 4 4 3 3 2 2 1 -0 -1 -1 -1 -1 -1 -1 -1 -0 -0 -0
13 13 13 12 12 11 11 11 11 11 11 10 10 10 9 9 8 7 7 6 5 5 4 4 4 3 2 2 2 1 0 -0 -1 -2 -2 -2 -2 -2 -1 -1 -1 -1 -1
13 12 12 12 11 11 11 11 11 10 10 10 9 9 8 8 7 6 5 5 4 5 4 4 3 2 2 1 1 -0 -1 -1 -2 -3 -3 -3 -3 -3 -2 -2 -2 -2 -3
13 12 12 11 11 11 11 10 10 10 9 9 8 8 7 6 5 4 3 3 2 3 3 3 2 1 1 -0 -1 -2 -2 -2 -3 -4 -4 -4 -4 -4 -4 -4 -4 -4 -3
13 12 11 11 10 10 10 10 9 9 8 8 8 7 6 5 4 3 2 1 1 1 1 1 1 0 -1 -2 -2 -2 -3 -3 -3 -4 -5 -5 -5 -5 -5 -5 -5 -4 -4
12 11 11 10 9 9 9 9 9 8 7 7 7 6 5 4 3 2 1 0 -1 -2 -2 -1 -1 -2 -2 -3 -3 -4 -4 -4 -4 -5 -6 -6 -6 -6 -6 -6 -5 -5 -5
11 11 10 9 8 8 8 8 7 7 7 6 6 5 4 3 2 1 1 0 -1 -2 -3 -3 -3 -3 -3 -4 -5 -5 -5 -5 -5 -5 -6 -6 -6 -6 -6 -6 -6 -6 -5
11 10 9 8 7 7 7 7 6 6 6 5 5 4 3 2 1 1 0 -0 -1 -2 -3 -4 -4 -4 -4 -4 -5 -5 -5 -5 -5 -6 -6 -6 -7 -7 -7 -6 -6 -6 -6
10 9 8 7 6 7 6 6 6 6 5 4 4 3 2 1 1 0 -1 -1 -2 -3 -4 -5 -5 -5 -5 -6 -6 -6 -6 -6 -6 -6 -6 -6 -6 -6 -6 -6 -6 -6 -6
9 8 6 6 6 6 5 5 5 5 4 3 2 2 1 1 0 -1 -1 -2 -3 -4 -5 -6 -7 -7 -7 -7 -7 -7 -7 -6 -6 -6 -5 -5 -5 -6 -6 -6 -6 -6 -6
7 6 5 5 5 5 4 4 4 3 3 2 2 1 1 0 -1 -2 -3 -4 -5 -6 -6 -7 -7 -8 -8 -7 -8 -8 -7 -6 -6 -6 -5 -6 -6 -6 -6 -6 -6 -6 -6
5 4 4 4 3 3 3 3 3 2 2 1 1 1 -0 -1 -2 -3 -4 -5 -6 -7 -7 -8 -8 -8 -8 -8 -8 -8 -8 -8 -7 -6 -6 -6 -6 -6 -5 -5 -6 -6 -6
3 3 3 3 3 3 2 2 2 1 1 1 0 -0 -1 -2 -3 -4 -5 -6 -7 -7 -8 -8 -8 -8 -8 -8 -8 -9 -9 -9 -9 -7 -8 -7 -7 -6 -6 -6 -6 -6 -6
2 1 1 2 2 2 2 1 1 1 0 0 -0 -1 -2 -3 -4 -5 -6 -7 -7 -8 -8 -8 -9 -9 -8 -8 -9 -9 -9 -9 -9 -8 -8 -8 -7 -6 -6 -6 -6 -6 -6
1 1 1 1 1 1 0 0 0 -0 -0 -1 -1 -2 -3 -4 -5 -6 -7 -8 -8 -8 -8 -8 -9 -9 -9 -9 -9 -9 -9 -9 -9 -8 -8 -8 -7 -7 -7 -6 -6 -6 -6
1 0 0 0 0 0 -0 -0 -1 -1 -2 -2 -3 -4 -5 -5 -6 -7 -8 -8 -8 -8 -8 -8 -8 -8 -8 -8 -9 -9 -9 -9 -9 -8 -8 -8 -7 -7 -7 -6 -6 -6 -6
0 -0 -0 -0 -0 -1 -1 -2 -3 -3 -3 -3 -4 -5 -6 -6 -8 -8 -8 -8 -9 -8 -8 -8 -7 -7 -7 -7 -7 -8 -8 -9 -10 -10 -8 -9 -9 -10 -10 -8 -7 -6 -6
Wind_Speed
6 7 7 8 7 6 7 6 5 5 5 6 6 6 6 8 9 10 12 14 14 12 11 11 11 10 10 10 10 10 11 11 12 13 13 13 13 14 15 14 14 13 11
9 7 5 6 7 8 8 7 6 5 4 5 5 6 6 8 10 10 12 13 13 12 11 10 10 11 11 11 11 11 11 12 12 12 13 13 13 14 14 14 14 14 13
13 10 6 5 8 10 10 9 7 6 4 4 5 4 4 6 9 10 11 12 12 11 10 10 11 12 12 12 11 11 11 12 12 13 13 13 14 14 15 15 14 14 14
17 12 7 6 10 11 9 5 4 4 4 4 3 2 2 5 8 9 9 10 9 9 9 10 11 12 13 12 12 12 11 11 12 12 13 14 15 16 16 16 16 15 15
18 14 8 8 13 8 5 4 3 3 3 2 2 2 2 3 5 7 6 7 8 8 9 9 10 10 11 12 13 12 12 11 11 12 13 14 15 16 17 17 17 17 17
18 15 9 10 11 6 5 5 5 3 3 1 3 4 3 2 3 3 5 6 7 8 8 7 6 6 8 10 12 12 11 11 11 12 12 14 16 17 18 18 18 18 18
18 14 9 8 7 7 7 7 4 4 3 2 3 3 4 4 3 3 3 3 5 6 6 4 3 4 4 7 9 10 10 11 11 12 13 15 17 18 19 19 19 19 19
18 16 13 11 9 7 7 6 4 3 2 2 3 3 1 2 3 3 2 3 4 5 5 5 6 5 4 5 7 8 8 10 12 14 15 17 19 20 21 21 20 20 19
18 16 15 11 10 8 8 6 5 6 4 2 2 3 4 5 2 3 3 3 3 3 3 6 9 10 9 9 8 6 8 10 13 15 17 19 21 22 23 22 21 21 20
15 17 16 13 11 8 8 6 5 4 5 3 2 2 2 3 3 1 2 1 1 2 4 6 9 11 12 11 9 9 11 13 15 18 20 21 23 23 24 23 22 22 22
10 14 15 13 11 9 9 8 6 5 4 4 3 2 2 3 2 2 2 4 4 3 4 4 6 7 11 13 13 13 15 16 18 20 22 24 25 25 25 24 24 23 24
9 11 13 11 10 10 10 9 7 7 4 4 4 3 3 2 2 2 2 3 4 4 4 4 2 5 7 11 14 17 17 18 20 23 25 26 27 26 25 25 25 26 26
9 13 13 12 10 9 10 9 8 7 6 6 4 3 3 2 2 3 2 2 3 3 3 3 2 4 5 11 15 20 17 20 23 25 26 26 26 25 26 26 27 27 27
9 11 11 11 10 11 11 9 8 6 5 5 5 5 3 2 2 3 3 2 2 3 3 4 3 1 8 14 17 19 16 22 25 26 25 25 25 26 26 27 27 28 27
10 13 13 12 11 9 10 10 7 7 6 4 5 4 3 2 3 3 3 3 3 3 3 4 3 3 11 12 15 17 16 24 25 24 25 26 26 26 27 27 27 27 27
13 14 14 13 12 10 10 9 7 7 6 5 4 5 3 3 3 3 3 3 4 5 4 4 4 4 7 12 19 19 20 23 23 24 25 26 27 27 27 27 27 27 28
16 15 15 14 13 11 10 9 7 8 7 5 4 5 4 4 3 3 3 3 3 4 6 5 4 4 5 8 14 18 18 18 18 23 26 27 26 26 27 27 27 28 28
15 15 15 14 12 11 9 9 8 7 6 5 4 4 4 4 4 4 3 4 4 4 5 6 4 4 7 8 8 10 15 17 17 24 26 26 27 27 27 27 27 28 28
15 15 14 13 11 10 9 8 7 6 5 4 3 3 4 4 5 4 5 5 4 5 5 5 6 4 5 7 9 10 10 11 16 20 24 25 26 26 26 27 28 28 29
15 14 12 11 11 10 9 8 8 7 6 4 2 0 3 5 6 6 5 6 6 6 5 5 6 6 6 8 7 8 11 7 10 14 20 22 24 25 26 28 28 29 29
14 13 13 12 10 8 7 8 7 6 5 3 2 2 3 5 7 6 6 6 5 4 5 5 7 8 8 7 8 7 13 12 10 11 10 9 10 10 16 24 26 27 28
14 13 12 11 9 7 11 10 7 5 3 2 3 4 5 6 7 9 9 10 10 7 5 5 7 10 11 10 9 11 12 14 11 4 6 12 10 12 10 12 24 29 29
13 12 10 9 9 9 10 9 8 4 3 2 3 4 3 4 6 3 8 12 12 14 15 11 10 11 12 11 10 12 12 13 15 11 12 16 10 13 11 18 27 30 31
11 9 8 8 7 7 8 8 7 4 2 2 2 2 3 4 6 8 7 6 6 8 11 10 9 11 11 10 10 12 13 13 13 10 9 13 13 13 13 9 26 30 30
9 7 6 6 6 6 7 6 6 2 0 2 3 4 5 5 11 14 8 6 7 8 14 19 20 19 22 23 18 10 8 11 15 12 7 6 7 11 11 12 16 24 24
8 7 6 5 5 3 4 3 5 3 2 3 4 5 8 10 13 14 8 7 8 9 9 10 11 14 14 16 19 9 7 10 12 9 4 4 6 8 8 6 7 9 14
Wind_Direction
174 172 170 167 164 152 137 122 108 96 76 62 59 79 98 127 122 104 97 93 89 84 77 69 61 54 46 41 37 33 28 24 19 14 10 8 5 0 355 351 349 345 341
175 169 161 159 151 146 135 119 110 96 71 64 54 66 95 128 130 116 107 100 95 89 79 68 58 48 40 34 30 26 23 19 14 9 5 3 0 356 351 346 340 336 331
171 163 152 143 144 137 122 108 98 86 67 55 45 45 85 127 140 129 121 115 107 96 84 69 56 43 31 23 18 17 18 15 11 8 4 2 359 354 348 343 338 332 327
162 154 147 143 144 133 121 110 102 80 58 51 37 22 64 119 138 146 139 131 121 106 89 75 60 45 29 19 12 9 9 9 8 6 3 360 357 353 348 342 336 331 323
159 153 149 146 142 128 119 116 92 101 76 52 39 58 65 113 131 147 147 141 130 117 100 83 67 49 32 22 12 2 0 2 3 2 358 355 351 347 342 337 332 327 322
158 152 147 145 139 125 121 114 107 85 90 88 66 58 41 74 109 134 150 142 132 118 106 90 67 45 31 22 10 359 356 356 356 353 350 348 345 340 334 329 324 320 317
159 153 148 146 143 141 145 138 121 103 68 70 90 53 19 33 72 80 104 113 112 104 96 75 41 27 25 16 4 354 349 347 345 341 338 338 338 334 328 322 318 314 311
162 159 155 157 151 141 145 153 143 125 83 56 123 118 82 344 2 25 59 96 93 76 55 28 14 3 345 334 330 338 336 335 334 329 327 328 330 328 322 318 314 311 309
165 162 161 156 153 151 159 161 152 140 136 61 70 143 154 201 260 335 23 72 82 74 37 21 9 351 334 319 309 306 316 321 319 318 319 320 321 320 316 313 310 309 308
166 162 160 157 156 153 153 153 148 144 138 143 93 60 115 144 153 242 321 339 4 48 18 359 349 351 354 353 344 327 322 316 312 313 314 315 314 313 310 308 307 307 307
162 160 158 156 156 153 149 142 138 137 136 148 150 135 97 69 90 143 264 314 330 333 348 331 343 2 15 23 10 349 336 325 318 315 313 312 311 310 308 307 306 306 305
159 160 158 156 155 152 149 143 137 135 130 130 128 129 138 140 146 147 209 273 291 295 306 308 345 8 30 19 1 344 335 327 321 316 312 310 308 308 308 307 306 304 302
168 170 162 157 155 150 143 138 135 134 136 137 135 125 123 132 137 141 166 249 286 296 306 311 281 12 18 353 345 334 331 324 318 314 309 306 306 307 307 304 301 299 296
163 159 152 150 149 149 144 139 135 133 136 140 141 137 137 144 140 149 163 173 296 301 291 278 307 320 346 344 332 326 325 320 314 309 307 307 307 305 303 301 298 296 295
149 151 148 147 148 147 144 141 139 137 142 148 148 146 143 145 135 141 150 159 188 267 281 274 291 309 335 326 322 319 317 313 309 308 308 305 304 303 301 298 297 297 296
152 152 149 148 148 146 144 137 137 142 147 152 156 155 157 157 152 157 167 179 183 204 250 256 257 284 305 313 315 315 307 308 308 305 304 304 303 301 300 300 300 298 296
151 154 152 150 151 148 143 141 146 152 154 156 159 172 184 173 177 192 194 200 210 203 248 267 255 274 287 292 303 302 301 296 293 301 303 302 302 301 301 301 299 297 295
150 150 149 148 150 147 143 147 152 153 153 159 168 174 194 190 198 206 212 223 228 221 232 273 275 278 280 286 286 288 298 297 296 300 302 303 303 301 300 299 299 299 299
144 145 146 147 144 137 133 134 130 128 126 134 156 189 212 205 223 229 229 231 236 244 240 267 284 277 277 283 286 284 284 283 292 299 303 302 300 300 300 300 301 301 298
140 138 135 130 126 123 123 120 115 111 106 97 86 119 246 227 231 234 235 237 241 253 261 267 282 287 284 280 278 293 303 288 292 299 295 294 295 298 297 298 297 296 294
122 119 116 112 110 111 116 114 109 104 96 75 32 336 285 245 233 245 244 236 232 241 258 267 283 294 296 298 300 299 305 306 295 285 281 281 286 284 287 290 292 291 289
105 108 112 114 108 110 116 111 107 96 82 43 337 314 293 272 271 284 290 291 288 280 278 275 284 292 297 296 297 300 303 304 303 279 290 295 289 287 282 277 286 289 290
100 99 100 103 105 116 117 112 106 100 71 15 328 320 316 308 320 299 289 293 294 292 291 293 291 288 292 293 292 293 293 294 296 299 300 295 289 287 284 286 290 291 291
97 97 100 109 117 132 130 122 111 95 67 16 356 351 317 307 304 291 266 265 263 271 279 282 270 273 277 277 276 291 296 296 290 284 280 287 291 288 288 280 288 288 289
103 108 122 138 148 152 146 133 131 135 174 308 303 311 319 303 305 302 298 280 274 273 288 293 293 293 297 301 303 301 296 299 299 296 275 271 285 295 290 280 279 285 288
126 131 127 132 145 161 177 167 159 184 243 282 296 305 319 315 306 306 303 291 289 284 281 289 296 298 296 294 298 289 277 289 295 298 256 255 288 307 298 256 254 274 283
Height
1528 1530 1531 1532 1533 1534 1535 1536 1536 1536 1535 1534 1533 1532 1531 1530 1529 1529 1528 1529 1529 1528 1528 1528 1528 1527 1527 1526 1525 1524 1523 1522 1521 1520 1519 1518 1517 1517 1517 1516 1516 1516 1516
1526 1527 1529 1530 1532 1533 1534 1534 1535 1535 1534 1533 1531 1530 1529 1529 1528 1528 1527 1528 1528 1528 1528 1527 1527 1526 1525 1524 1523 1522 1521 1519 1518 1517 1516 1515 1514 1513 1513 1512 1512 1512 1512
1523 1525 1527 1528 1530 1531 1532 1533 1533 1533 1532 1531 1530 1528 1528 1528 1527 1527 1527 1527 1527 1527 1527 1526 1526 1525 1524 1522 1521 1520 1518 1517 1515 1514 1513 1511 1510 1509 1508 1508 1507 1507 1507
1521 1523 1525 1526 1528 1530 1531 1532 1532 1531 1530 1529 1528 1527 1526 1526 1526 1526 1526 1526 1526 1526 1526 1525 1524 1523 1522 1520 1519 1517 1515 1514 1512 1511 1509 1508 1506 1505 1504 1503 1503 1503 1502
1518 1520 1522 1525 1527 1528 1529 1530 1530 1529 1528 1527 1526 1525 1525 1525 1525 1526 1525 1525 1525 1525 1524 1524 1523 1522 1520 1518 1516 1514 1512 1510 1509 1507 1506 1504 1503 1501 1500 1499 1498 1498 1498
1515 1518 1520 1523 1525 1526 1527 1528 1528 1528 1527 1526 1525 1524 1524 1524 1524 1524 1524 1524 1523 1523 1522 1522 1521 1519 1517 1514 1512 1510 1508 1507 1505 1504 1502 1500 1499 1497 1496 1495 1494 1493 1493
1512 1515 1517 1520 1522 1524 1525 1526 1527 1526 1525 1524 1524 1523 1523 1523 1522 1522 1522 1522 1521 1520 1519 1518 1517 1516 1513 1511 1508 1506 1504 1503 1501 1500 1498 1497 1495 1493 1491 1490 1489 1488 1487
1508 1511 1514 1517 1519 1521 1523 1524 1525 1525 1524 1523 1522 1521 1521 1522 1520 1520 1519 1519 1519 1518 1517 1516 1514 1511 1509 1507 1504 1502 1500 1499 1497 1496 1494 1493 1490 1488 1486 1485 1484 1482 1481
1504 1507 1510 1513 1516 1518 1520 1522 1522 1523 1522 1522 1521 1520 1519 1518 1518 1517 1516 1516 1515 1515 1514 1513 1510 1507 1504 1502 1500 1498 1496 1494 1492 1491 1490 1488 1485 1483 1481 1479 1478 1476 1475
1499 1502 1506 1509 1512 1515 1517 1519 1520 1520 1520 1519 1519 1518 1517 1515 1515 1514 1514 1513 1512 1511 1510 1509 1506 1503 1500 1498 1496 1493 1491 1489 1487 1486 1485 1482 1480 1478 1475 1473 1471 1469 1467
1493 1497 1501 1504 1507 1510 1513 1515 1516 1517 1517 1517 1516 1515 1513 1512 1511 1511 1510 1510 1509 1508 1506 1504 1501 1498 1496 1493 1491 1488 1486 1483 1482 1480 1478 1476 1473 1471 1468 1466 1464 1461 1459
1486 1491 1495 1499 1502 1505 1508 1510 1512 1513 1513 1513 1513 1512 1511 1509 1508 1506 1505 1503 1502 1501 1500 1499 1497 1494 1491 1488 1485 1483 1480 1477 1474 1472 1470 1468 1465 1463 1460 1457 1455 1453 1451
1478 1483 1488 1492 1496 1500 1503 1506 1508 1509 1509 1509 1509 1508 1507 1505 1504 1503 1501 1499 1496 1494 1493 1493 1491 1489 1486 1483 1480 1477 1473 1470 1467 1464 1462 1460 1457 1454 1451 1449 1447 1444 1443
1472 1477 1482 1487 1491 1495 1498 1501 1503 1505 1506 1506 1505 1504 1503 1501 1500 1499 1498 1496 1492 1489 1487 1487 1485 1483 1480 1477 1474 1470 1466 1462 1459 1456 1454 1451 1448 1446 1443 1440 1438 1436 1434
1467 1472 1477 1482 1487 1491 1494 1497 1499 1500 1502 1502 1501 1500 1499 1498 1497 1495 1493 1492 1490 1485 1481 1480 1479 1477 1474 1470 1467 1462 1458 1455 1452 1449 1446 1443 1440 1437 1435 1432 1430 1428 1426
1462 1467 1472 1477 1482 1487 1490 1492 1495 1496 1497 1497 1496 1496 1495 1494 1492 1491 1489 1487 1485 1482 1477 1474 1473 1471 1467 1464 1460 1456 1452 1448 1445 1441 1438 1435 1432 1429 1427 1424 1422 1419 1417
1456 1462 1467 1472 1478 1482 1486 1488 1491 1492 1493 1492 1492 1491 1490 1489 1488 1487 1485 1482 1480 1477 1472 1468 1467 1464 1461 1457 1453 1450 1445 1441 1437 1434 1430 1427 1424 1421 1418 1415 1413 1410 1408
1452 1457 1462 1468 1474 1478 1482 1485 1487 1488 1488 1488 1487 1486 1485 1484 1483 1481 1479 1477 1474 1471 1467 1462 1459 1457 1454 1450 1446 1442 1438 1434 1430 1426 1422 1419 1415 1412 1409 1406 1404 1401 1398
1447 1452 1459 1465 1471 1475 1479 1481 1483 1484 1483 1483 1483 1482 1480 1479 1477 1475 1473 1470 1468 1465 1461 1457 1453 1450 1447 1444 1439 1434 1430 1426 1422 1418 1414 1411 1407 1404 1401 1399 1395 1392 1388
1444 1450 1457 1464 1469 1473 1477 1479 1479 1480 1479 1479 1478 1477 1475 1474 1472 1469 1467 1464 1462 1459 1456 1452 1448 1444 1441 1437 1433 1427 1421 1417 1414 1411 1407 1403 1400 1397 1394 1391 1387 1383 1380
1442 1449 1456 1463 1468 1472 1475 1476 1476 1476 1475 1474 1473 1471 1470 1468 1465 1463 1461 1459 1456 1454 1451 1447 1443 1439 1434 1430 1426 1421 1415 1409 1405 1403 1398 1394 1391 1387 1385 1382 1378 1374 1370
1443 1450 1457 1463 1468 1471 1472 1473 1473 1472 1471 1470 1468 1466 1464 1462 1460 1457 1456 1454 1452 1450 1446 1443 1438 1434 1429 1425 1421 1416 1411 1404 1398 1396 1391 1385 1384 1379 1376 1372 1368 1364 1361
1446 1453 1460 1464 1467 1468 1469 1469 1469 1468 1467 1465 1463 1460 1458 1456 1454 1451 1449 1447 1446 1444 1442 1439 1433 1429 1424 1420 1415 1410 1406 1401 1395 1390 1386 1376 1374 1370 1367 1363 1359 1355 1352
1450 1456 1460 1463 1464 1465 1465 1465 1465 1465 1463 1460 1457 1454 1452 1449 1448 1446 1444 1442 1440 1438 1436 1432 1427 1422 1419 1415 1411 1407 1401 1394 1387 1384 1381 1371 1365 1361 1356 1352 1350 1346 1342
1451 1455 1458 1461 1462 1463 1463 1462 1462 1460 1458 1455 1452 1449 1446 1444 1443 1441 1440 1437 1434 1431 1429 1425 1421 1417 1414 1410 1406 1400 1394 1388 1379 1373 1373 1366 1357 1351 1344 1340 1339 1336 1333
1451 1455 1458 1460 1461 1461 1460 1459 1458 1455 1453 1450 1447 1445 1442 1440 1438 1437 1435 1431 1427 1424 1421 1416 1413 1410 1407 1404 1400 1396 1390 1383 1375 1367 1363 1359 1351 1346 1333 1326 1326 1325 1321